CW0621 Weather Reports


time (UTC)temp
C
wind
direction
speed
KPH
gust
KPH
rain 1hr
cm
rain 24hr
cm
rain mn
cm
humidity
%
barometer
mb
20260904031552 20 276 0.0 0.0 0.00 0.00 0.00 91 1013.9
20260904030002 20 276 0.0 0.0 0.00 0.00 0.00 90 1014.0
20260904024530 20 276 0.0 0.0 0.00 0.00 0.00 90 1014.0
20260904023055 20 276 0.0 0.0 0.00 0.00 0.00 88 1013.7
20260904021524 20 276 0.0 0.0 0.00 0.00 0.00 88 1013.4
20260904020050 21 276 0.0 0.0 0.00 0.00 0.00 86 1013.3
20260904014511 21 276 0.0 0.0 0.00 0.00 0.00 85 1013.3
20260904013044 22 276 0.0 0.0 0.00 0.00 0.00 83 1013.4
20260904011503 22 276 0.0 0.0 0.00 0.00 0.00 82 1013.4
20260904010030 22 276 0.0 0.0 0.00 0.00 0.00 81 1013.5
20260904004556 22 321 0.0 0.0 0.00 0.00 0.00 80 1013.6
20260904003019 23 321 0.0 0.0 0.00 0.00 0.00 79 1013.8
20260904001552 23 173 0.0 0.0 0.00 0.00 0.00 77 1013.5
20260904000022 23 289 0.0 0.0 0.00 0.00 0.00 77 1013.5
20260903234555 23 230 0.0 4.8 0.00 0.00 0.00 78 1013.4
20260903233026 24 212 0.0 0.0 0.00 0.00 0.00 78 1013.1
20260903231556 24 293 0.0 0.0 0.00 0.00 0.00 79 1013.1
20260903230032 24 262 0.0 0.0 0.00 0.00 0.00 78 1012.9
20260903224547 24 132 0.0 1.6 0.00 0.00 0.00 78 1012.9
20260903223012 25 343 0.0 3.2 0.00 0.00 0.00 77 1013.2
20260903221541 25 30 0.0 4.8 0.00 0.00 0.00 79 1013.0
20260903220009 24 39 0.0 9.7 0.00 0.00 0.00 81 1013.3
20260903214534 25 24 6.4 19.3 0.00 0.00 0.00 78 1013.5
20260903213003 26 24 4.8 17.7 0.00 0.00 0.00 76 1012.9
20260903211533 26 38 4.8 14.5 0.00 0.00 0.00 74 1012.6
20260903210057 26 51 1.6 16.1 0.00 0.00 0.00 77 1012.7
20260903204520 25 330 0.0 11.3 0.00 0.00 0.00 81 1013.0
20260903203047 25 328 0.0 6.4 0.00 0.00 0.00 84 1013.0
20260903201524 23 34 0.0 6.4 0.00 0.00 0.00 84 1012.8
20260903200045 24 49 1.6 14.5 0.00 0.00 0.00 80 1012.4
20260903194503 27 76 0.0 16.1 0.00 0.00 0.00 68 1012.0
20260903193033 32 113 0.0 6.4 0.00 0.00 0.00 58 1011.3
20260903191557 34 71 0.0 1.6 0.00 0.00 0.00 54 1011.4
20260903190022 34 99 0.0 11.3 0.00 0.00 0.00 54 1011.2
20260903184547 34 107 0.0 3.2 0.00 0.00 0.00 55 1011.8
20260903183011 33 96 0.0 9.7 0.00 0.00 0.00 55 1012.4
20260903181538 33 210 0.0 8.0 0.00 0.00 0.00 56 1012.4
20260903180012 33 78 0.0 8.0 0.00 0.00 0.00 55 1012.5
20260903174530 34 81 0.0 1.6 0.00 0.00 0.00 55 1012.6
20260903173057 34 164 0.0 1.6 0.00 0.00 0.00 58 1012.3
20260903171520 34 162 0.0 0.0 0.00 0.00 0.00 56 1012.2
20260903170055 33 230 0.0 1.6 0.00 0.00 0.00 56 1012.2
20260903164512 33 71 0.0 6.4 0.00 0.00 0.00 56 1012.4
20260903163038 32 122 0.0 3.2 0.00 0.00 0.00 60 1012.6
20260903161559 32 107 0.0 1.6 0.00 0.00 0.00 60 1012.9
20260903160023 31 138 0.0 0.0 0.00 0.00 0.00 63 1013.1
20260903154558 31 137 0.0 0.0 0.00 0.00 0.00 63 1013.2
20260903153015 31 106 0.0 0.0 0.00 0.00 0.00 64 1013.2
20260903151542 30 53 0.0 0.0 0.00 0.00 0.00 65 1013.2
20260903150005 29 167 0.0 0.0 0.00 0.00 0.00 69 1013.1
20260903144530 28 84 0.0 0.0 0.00 0.00 0.00 72 1013.1
20260903143106 28 122 0.0 0.0 0.00 0.00 0.00 75 1013.2
20260903141531 27 87 0.0 0.0 0.00 0.00 0.00 77 1013.0
20260903140047 27 114 0.0 0.0 0.00 0.00 0.00 77 1013.1
20260903134509 26 106 0.0 0.0 0.00 0.00 0.00 80 1013.2
20260903133036 26 84 0.0 0.0 0.00 0.00 0.00 81 1013.3
20260903131503 25 229 0.0 0.0 0.00 0.00 0.00 83 1013.3
20260903130024 25 79 0.0 0.0 0.00 0.00 0.00 83 1013.3
20260903124552 25 210 0.0 0.0 0.00 0.00 0.00 86 1013.4
20260903123017 25 210 0.0 0.0 0.00 0.00 0.00 86 1013.7
20260903121543 24 104 0.0 0.0 0.00 0.00 0.00 87 1013.7
20260903120009 23 104 0.0 0.0 0.00 0.00 0.00 88 1013.6
20260903114537 23 124 0.0 0.0 0.00 0.00 0.00 89 1013.6
20260903113003 23 81 0.0 0.0 0.00 0.00 0.00 89 1013.4
20260903111543 23 91 0.0 0.0 0.00 0.00 0.00 91 1013.3
20260903104529 22 75 0.0 0.0 0.00 0.00 0.00 93 1013.1
20260903103104 22 98 0.0 0.0 0.00 0.00 0.00 93 1013.1
20260903101626 22 89 0.0 0.0 0.00 0.00 0.00 93 1013.0
20260903100058 22 89 0.0 0.0 0.00 0.00 0.00 94 1013.0
20260903094523 22 136 0.0 0.0 0.00 0.00 0.00 94 1012.9
20260903093101 22 349 0.0 0.0 0.00 0.00 0.00 93 1012.9
20260903091529 22 349 0.0 0.0 0.00 0.00 0.00 93 1012.7
20260903090047 22 282 0.0 0.0 0.00 0.00 0.00 93 1012.7
20260903084531 23 282 0.0 0.0 0.00 0.00 0.00 92 1012.7
20260903083039 23 282 0.0 0.0 0.00 0.00 0.00 92 1012.6
20260903081504 23 157 0.0 0.0 0.00 0.00 0.00 92 1012.6
20260903080031 23 209 0.0 0.0 0.00 0.00 0.00 92 1012.5
20260903074602 23 209 0.0 0.0 0.00 0.00 0.00 92 1012.5
20260903073028 23 209 0.0 0.0 0.00 0.00 0.00 92 1012.4
20260903071556 23 209 0.0 0.0 0.00 0.00 0.00 92 1012.5
20260903070025 23 209 0.0 0.0 0.00 0.00 0.00 92 1012.5
20260903064552 23 238 0.0 0.0 0.00 0.00 0.00 91 1012.6
20260903063013 24 238 0.0 0.0 0.00 0.00 0.00 90 1012.6
20260903061540 24 238 0.0 0.0 0.00 0.00 0.00 89 1012.6
20260903060003 24 247 0.0 0.0 0.00 0.00 0.00 89 1012.6
20260903054531 25 247 0.0 0.0 0.00 0.00 0.00 88 1012.6
20260903053100 25 77 0.0 0.0 0.00 0.00 0.00 87 1012.6
20260903051522 25 133 0.0 0.0 0.00 0.00 0.00 86 1012.4
20260903050048 25 246 0.0 0.0 0.00 0.00 0.00 85 1012.4
20260903044512 26 326 0.0 0.0 0.00 0.00 0.00 84 1012.2
20260903043038 26 248 0.0 0.0 0.00 0.00 0.00 85 1012.1
20260903041603 26 53 0.0 0.0 0.00 0.00 0.00 85 1012.0
20260903040026 26 142 0.0 0.0 0.00 0.00 0.00 85 1011.9
20260903034553 26 64 0.0 1.6 0.00 0.00 0.00 85 1011.8
20260903033025 26 243 0.0 0.0 0.00 0.00 0.00 85 1011.8